[[{"header":{"parameterUnit":"m.s-1","parameterCategory":1,"la1":30.2991,"la2":30.254,"lo1":-89.0895,"lo2":-89.0444,"dy":0.0017,"dx":0.0017,"nx":28,"ny":28,"refTime":"2025-12-14T03:00:00:Z","depth":0,"parameterNumber":2,"parameterNumberName":"U-component_of_WINDS"},"data":[0,0,0,0,0,0,0,0,0,0,0,0,0,0,0,0,0,0,0,0,0,0,0,0,0,0,0,0,0,0,0,0,0,0,0,0,0,0,0,0,0,0,0,0,0,0,0,0,0,0,0,0,0,0,0,0,0,0,-1.6874,-1.6874,0,-1.6889,-1.689,-1.689,-1.6847,-1.6845,-1.6844,-1.6843,-1.6858,-1.6859,-1.6861,0,0,0,0,0,0,0,0,0,0,0,0,0,-1.6806,-1.6807,-1.6874,-1.6874,-1.6874,-1.6889,-1.689,-1.689,-1.6847,-1.6845,-1.6844,-1.6842,-1.6857,-1.6859,-1.6861,0,0,0,0,0,0,0,0,0,0,0,0,0,-1.683,-1.6808,-1.6874,-1.6855,-1.6853,-1.6889,-1.689,-1.689,-1.6847,-1.6845,-1.6843,-1.6842,-1.6856,-1.6859,-1.6861,-1.6916,0,0,-1.6869,-1.687,0,0,0,0,0,0,0,0,-1.6828,-1.6832,-1.6857,-1.6856,-1.6854,-1.6864,-1.6871,-1.6899,-1.6848,-1.6849,-1.6843,-1.6841,-1.6861,-1.6863,-1.6871,-1.6917,-1.6918,-1.6869,-1.687,-1.6871,-1.6872,0,0,0,0,0,0,0,-1.6827,-1.6831,-1.688,-1.6858,-1.6856,-1.6845,-1.6846,-1.6876,-1.6866,-1.6849,-1.6846,-1.6849,-1.686,-1.6868,-1.6871,-1.6918,-1.6869,-1.6871,-1.6873,-1.6874,-1.7011,-1.7013,0,0,0,0,0,0,-1.6828,-1.683,-1.6879,-1.688,-1.6836,-1.6848,-1.6849,-1.6863,-1.6866,-1.6864,-1.685,-1.6847,-1.6865,-1.6868,-1.6871,-1.6935,-1.6871,-1.6874,-1.6875,-1.7008,-1.7011,-1.7013,0,0,0,0,0,0,-1.6827,-1.6833,-1.6879,-1.6854,-1.686,-1.6851,-1.6867,-1.6864,-1.6872,-1.6867,-1.6865,-1.686,-1.6864,-1.6867,-1.6905,-1.6935,-1.6875,-1.6877,-1.7006,-1.7009,-1.7012,-1.7065,0,0,0,0,0,0,-1.6825,-1.6832,-1.6853,-1.6855,-1.6861,-1.6913,-1.6869,-1.6866,-1.6877,-1.6872,-1.6876,-1.6874,-1.6862,-1.6902,-1.6908,-1.6937,-1.6879,-1.7003,-1.7007,-1.7011,-1.706,-1.7069,-1.7077,0,0,0,0,0,-1.6823,-1.6867,-1.6854,-1.686,-1.6887,-1.6915,-1.6918,-1.6904,-1.6879,-1.69,-1.6897,-1.6874,-1.6932,-1.6906,-1.6913,-1.6943,-1.7001,-1.7006,-1.7011,-1.7056,-1.7067,-1.7077,0,0,0,0,0,0,-1.6867,-1.6867,-1.6853,-1.6899,-1.6908,-1.6908,-1.6933,-1.6916,-1.6931,-1.6926,-1.6907,-1.6908,-1.695,-1.695,-1.6922,-1.6997,-1.6962,-1.6968,-1.6994,-1.7005,-1.7013,-1.7011,-1.6881,0,0,0,0,0,-1.6883,-1.6906,-1.6904,-1.6945,-1.695,-1.6941,-1.6953,-1.6941,-1.6949,-1.6952,-1.6951,-1.6959,-1.6979,-1.6992,-1.701,-1.7061,-1.7061,-1.7085,-1.7094,-1.71,-1.7106,-1.7132,-1.7143,-1.7029,-1.7029,-1.7029,0,0,-1.6914,-1.6917,-1.6933,-1.6954,-1.6959,-1.6984,-1.6944,-1.6971,-1.6989,-1.6956,-1.6992,-1.6992,-1.7,-1.7044,-1.7064,-1.7046,-1.7137,-1.7107,-1.7112,-1.7114,-1.7139,-1.7149,-1.7159,-1.7033,-1.7032,-1.7032,0,0,-1.6984,-1.6989,-1.7024,-1.703,-1.7039,-1.7033,-1.7041,-1.7045,-1.7044,-1.708,-1.7055,-1.7076,-1.7111,-1.7117,-1.7125,-1.72,-1.718,-1.7207,-1.725,-1.7276,-1.7285,-1.7293,-1.7319,-1.7328,-1.7212,-1.7212,-1.7212,0,-1.7022,-1.7058,-1.7044,-1.7073,-1.7083,-1.7056,-1.7091,-1.7097,-1.7111,-1.7119,-1.7099,-1.7143,-1.7146,-1.7192,-1.721,-1.7218,-1.7227,-1.7205,-1.7285,-1.7293,-1.73,-1.7324,-1.7334,-1.7215,-1.7215,-1.7215,-1.7214,0,-1.7104,-1.7129,-1.7156,-1.7171,-1.7185,-1.7217,-1.7207,-1.7223,-1.7211,-1.7207,-1.7245,-1.7248,-1.7266,-1.7277,-1.7265,-1.7321,-1.731,-1.7288,-1.7252,-1.7314,-1.7337,-1.7346,-1.722,-1.7219,-1.7218,-1.7217,0,0,-1.72,-1.7208,-1.7218,-1.7225,-1.7234,-1.7253,-1.7284,-1.7303,-1.7316,-1.7327,-1.7352,-1.7383,-1.7364,-1.7373,-1.7362,-1.7385,-1.7444,-1.7361,-1.7361,-1.7375,-1.7506,-1.7521,-1.7532,-1.7432,-1.7433,-1.7435,-1.7505,0,-1.7268,-1.7321,-1.731,-1.7363,-1.7386,-1.7362,-1.7389,-1.7397,-1.7395,-1.7414,-1.7412,-1.7434,-1.7407,-1.7412,-1.7434,-1.7432,-1.747,-1.7427,-1.7454,-1.7455,-1.7451,-1.7544,-1.756,-1.7625,-1.7513,-1.7515,-1.7516,0,-1.7354,-1.7369,-1.7424,-1.743,-1.7439,-1.7464,-1.7481,-1.75,-1.7509,-1.7506,-1.7517,-1.7502,-1.7533,-1.7499,-1.7541,-1.7512,-1.7523,-1.7524,-1.7526,-1.7527,-1.7488,-1.7545,-1.7646,-1.7655,-1.753,-1.7529,-1.7528,0,-1.7417,-1.7452,-1.7489,-1.7496,-1.7504,-1.7522,-1.7526,-1.7533,-1.7546,-1.756,-1.7568,-1.7586,-1.7596,-1.761,-1.7601,-1.7577,-1.7644,-1.7609,-1.7642,-1.7642,-1.7655,-1.7654,-1.7758,-1.7665,-1.7665,-1.7665,-1.7665,0,-1.7493,-1.7528,-1.7518,-1.7541,-1.7579,-1.7566,-1.7604,-1.7605,-1.7613,-1.7635,-1.7616,-1.7637,-1.7624,-1.7645,-1.7637,-1.7673,-1.7678,-1.7676,-1.7673,-1.7677,-1.7677,-1.7682,-1.7677,-1.7668,-1.7667,-1.7667,-1.7666,0,-1.7569,-1.7564,-1.7603,-1.7608,-1.7611,-1.7638,-1.7642,-1.7664,-1.7661,-1.769,-1.7696,-1.7692,-1.7715,-1.7708,-1.7733,-1.7728,-1.7773,-1.7766,-1.777,-1.7768,-1.78,-1.7797,-1.7909,-1.7923,-1.7823,-1.7824,-1.7825,0,-1.7617,-1.7643,-1.7652,-1.7666,-1.7672,-1.7695,-1.7707,-1.7697,-1.7711,-1.7725,-1.7744,-1.7766,-1.7783,-1.7821,-1.782,-1.784,-1.7831,-1.7869,-1.7834,-1.7837,-1.783,-1.7828,-1.783,-1.7876,-1.7877,-1.7878,-1.7879,0,-1.7703,-1.7699,-1.7719,-1.7738,-1.7754,-1.7769,-1.7781,-1.7794,-1.7784,-1.7801,-1.7825,-1.7839,-1.7865,-1.7887,-1.7905,-1.7908,-1.7892,-1.789,-1.7899,-1.7901,-1.7902,-1.7901,-1.7788,-1.7887,-1.7886,-1.7886,-1.7885,-1.7885,-1.7765,-1.7787,-1.7797,-1.7819,-1.7828,-1.7841,-1.7861,-1.7862,-1.7882,-1.7903,-1.7896,-1.7924,-1.7933,-1.7956,-1.7962,-1.7984,-1.7969,-1.7981,-1.7984,-1.7987,-1.799,-1.7901,-1.7987,-1.7987,-1.7987,-1.7986,-1.7986,0,-1.7848,-1.7854,-1.7875,-1.7894,-1.7912,-1.7897,-1.791,-1.7926,-1.7951,-1.7962,-1.7979,-1.8007,-1.8029,-1.8031,-1.8051,-1.8067,-1.806,-1.8073,-1.8071,-1.8072,-1.8003,-1.7993,-1.8078,-1.8078,-1.8078,-1.8078,-1.8078,-1.8078,-1.7894,-1.793,-1.7929,-1.797,-1.7975,-1.8002,-1.8011,-1.8023,-1.8031,-1.8064,-1.8082,-1.8084,-1.8091,-1.8112,-1.8131,-1.8131,-1.8138,-1.8154,-1.8151,-1.8086,-1.8077,-1.8068,-1.8058,-1.8156,-1.8156,-1.8218,-1.8218,-1.8219]},{"header":{"parameterUnit":"m.s-1","parameterCategory":1,"la1":30.2991,"la2":30.254,"lo1":-89.0895,"lo2":-89.0444,"dy":0.0017,"dx":0.0017,"nx":28,"ny":28,"refTime":"2025-12-14T03:00:00:Z","depth":0,"parameterNumber":3,"parameterNumberName":"V-component_of_WINDS"},"data":[0,0,0,0,0,0,0,0,0,0,0,0,0,0,0,0,0,0,0,0,0,0,0,0,0,0,0,0,0,0,0,0,0,0,0,0,0,0,0,0,0,0,0,0,0,0,0,0,0,0,0,0,0,0,0,0,0,0,0.6074,0.6074,0,0.6105,0.6106,0.6106,0.6151,0.6152,0.6153,0.6154,0.6183,0.6183,0.6183,0,0,0,0,0,0,0,0,0,0,0,0,0,0.6052,0.6052,0.6074,0.6074,0.6075,0.6105,0.6106,0.6106,0.6151,0.6152,0.6153,0.6154,0.6183,0.6183,0.6183,0,0,0,0,0,0,0,0,0,0,0,0,0,0.607,0.6052,0.6074,0.6101,0.6104,0.6105,0.6106,0.6106,0.6151,0.6152,0.6153,0.6154,0.6183,0.6183,0.6183,0.616,0,0,0.6183,0.6183,0,0,0,0,0,0,0,0,0.6069,0.6071,0.6096,0.6099,0.6102,0.6126,0.6109,0.6124,0.6151,0.6133,0.6154,0.6155,0.6163,0.6165,0.6168,0.6161,0.6163,0.6183,0.6183,0.6184,0.6184,0,0,0,0,0,0,0,0.6067,0.6069,0.6086,0.6097,0.61,0.6111,0.6115,0.6112,0.6141,0.6134,0.6138,0.6141,0.6165,0.6168,0.6169,0.6163,0.6183,0.6183,0.6184,0.6184,0.614,0.6139,0,0,0,0,0,0,0.6062,0.6068,0.6085,0.6087,0.6088,0.611,0.6115,0.6117,0.6141,0.6146,0.614,0.6143,0.6167,0.6169,0.617,0.6145,0.6184,0.6184,0.6184,0.6141,0.614,0.6139,0,0,0,0,0,0,0.6062,0.6063,0.6084,0.6079,0.6082,0.611,0.6111,0.6117,0.612,0.6145,0.615,0.6138,0.6168,0.617,0.6163,0.6147,0.6184,0.6184,0.6143,0.6141,0.6139,0.6094,0,0,0,0,0,0,0.6061,0.6063,0.6055,0.6078,0.6082,0.6076,0.611,0.6117,0.612,0.6125,0.6145,0.6149,0.6169,0.6162,0.6163,0.6147,0.6184,0.6144,0.6142,0.614,0.6097,0.6091,0.6086,0,0,0,0,0,0.606,0.604,0.6054,0.6056,0.6072,0.6075,0.6077,0.6102,0.6119,0.6111,0.6127,0.6148,0.6149,0.6161,0.6162,0.6146,0.6145,0.6143,0.614,0.61,0.6092,0.6086,0,0,0,0,0,0,0.6013,0.6043,0.6059,0.6047,0.6058,0.6083,0.6073,0.6093,0.6099,0.6103,0.6132,0.6136,0.6125,0.6135,0.6148,0.6126,0.615,0.6148,0.6119,0.6113,0.6107,0.6104,0.6184,0,0,0,0,0,0.6001,0.6001,0.6028,0.6014,0.6019,0.6045,0.6047,0.6065,0.6078,0.6082,0.6098,0.6109,0.6112,0.6113,0.6117,0.6099,0.6104,0.6089,0.6084,0.6079,0.6076,0.6068,0.6062,0.613,0.613,0.613,0,0,0.5976,0.5993,0.5991,0.6005,0.6016,0.6015,0.6049,0.6046,0.6046,0.6082,0.6076,0.6088,0.6102,0.609,0.6085,0.6098,0.6059,0.6075,0.6071,0.6071,0.6065,0.6058,0.6052,0.6128,0.6128,0.6129,0,0,0.5931,0.5944,0.5934,0.5945,0.5962,0.5979,0.5977,0.5999,0.6009,0.6004,0.6031,0.6031,0.6035,0.6044,0.6049,0.6009,0.6029,0.6009,0.5979,0.5972,0.5966,0.5962,0.5947,0.5942,0.6007,0.6007,0.6007,0,0.5898,0.5899,0.5926,0.5923,0.5928,0.5962,0.5952,0.5961,0.5977,0.598,0.5995,0.6001,0.6013,0.6004,0.5994,0.5997,0.5995,0.6007,0.5965,0.5961,0.5957,0.5943,0.5938,0.6004,0.6004,0.6005,0.6005,0,0.5857,0.5857,0.5847,0.5864,0.5868,0.5861,0.5888,0.5889,0.5906,0.5922,0.5917,0.5933,0.5941,0.594,0.5957,0.5933,0.5941,0.596,0.5985,0.5947,0.5935,0.593,0.6001,0.6001,0.6002,0.6003,0,0,0.5782,0.5815,0.5811,0.5819,0.5841,0.5841,0.5836,0.5845,0.5845,0.5856,0.5852,0.5856,0.5874,0.588,0.5898,0.5891,0.5859,0.5911,0.5912,0.59,0.5834,0.5819,0.5813,0.5872,0.5872,0.5871,0.5833,0,0.5741,0.5735,0.576,0.5747,0.5748,0.578,0.5776,0.5789,0.5804,0.5806,0.5823,0.5825,0.5848,0.5852,0.5847,0.5864,0.5846,0.5867,0.5869,0.5868,0.5864,0.5807,0.5791,0.5755,0.5828,0.5828,0.5827,0,0.5692,0.5701,0.5688,0.5712,0.5713,0.5709,0.5719,0.5721,0.5737,0.5748,0.5755,0.5777,0.5774,0.5798,0.5794,0.5808,0.581,0.5819,0.5818,0.5818,0.5845,0.5806,0.5744,0.5738,0.582,0.582,0.5821,0,0.5638,0.5647,0.5641,0.5647,0.5675,0.5671,0.5682,0.5698,0.5702,0.5712,0.5715,0.5723,0.5727,0.5733,0.5756,0.5772,0.5749,0.5776,0.5758,0.5758,0.5752,0.5751,0.5688,0.5754,0.5754,0.5754,0.5754,0,0.5589,0.558,0.5618,0.5614,0.5605,0.5634,0.5624,0.5639,0.5653,0.5653,0.5682,0.568,0.5711,0.5713,0.5732,0.5725,0.5727,0.5736,0.5741,0.5733,0.5732,0.5735,0.5738,0.5752,0.5753,0.5753,0.5753,0,0.5527,0.5552,0.5548,0.5574,0.5581,0.5573,0.5596,0.5593,0.5611,0.561,0.5611,0.5638,0.5642,0.5667,0.5676,0.5688,0.5675,0.5685,0.567,0.5674,0.5655,0.5656,0.5591,0.5584,0.5654,0.5653,0.5652,0,0.5494,0.5488,0.5515,0.5517,0.5527,0.553,0.5534,0.5563,0.5567,0.5585,0.558,0.5587,0.5594,0.5599,0.5619,0.5626,0.5637,0.5613,0.5638,0.563,0.5636,0.5636,0.5636,0.5608,0.5607,0.5606,0.5605,0,0.5433,0.5446,0.5452,0.5463,0.5468,0.5477,0.5488,0.5488,0.5521,0.5523,0.5529,0.5534,0.5544,0.555,0.5562,0.5573,0.5594,0.5598,0.5594,0.5586,0.5578,0.5582,0.5656,0.5599,0.56,0.56,0.56,0.5601,0.5384,0.5381,0.5399,0.5405,0.5417,0.5427,0.5427,0.5445,0.545,0.5461,0.5478,0.5481,0.5497,0.5515,0.5524,0.5527,0.5539,0.5534,0.5532,0.5531,0.5527,0.5578,0.5529,0.5529,0.5529,0.5529,0.553,0,0.5324,0.5338,0.5344,0.5359,0.5364,0.5386,0.5399,0.5402,0.5404,0.5418,0.5425,0.5431,0.5438,0.5459,0.5468,0.5466,0.5476,0.5467,0.5467,0.5469,0.5515,0.5517,0.5459,0.5459,0.5459,0.5459,0.5459,0.5459,0.5294,0.5289,0.5305,0.5306,0.5321,0.5324,0.5331,0.534,0.5351,0.5357,0.5364,0.5378,0.5395,0.5405,0.5412,0.5418,0.542,0.5408,0.5417,0.5459,0.5466,0.5472,0.5475,0.5408,0.5408,0.5371,0.5371,0.5371]}]]